Location: Waning Moon II Observatory
(30.3730°N, 89.7620°W)
Time: 01:27:28
(UTC-05:00)

Cosmos 1825 Rocket - Visible Passes

Search period start: 27 May 2016 00:00
Search period end: 06 June 2016 00:00
Orbit: 604 x 631 km, 82.5° (Epoch: 26 May)

Date Brightness Start Highest point End Pass type
(mag) Time Alt. Az. Time Alt. Az. Time Alt. Az.
27 May 5.4 21:05:59 14° E 21:05:59 14° E 21:08:11 10° NE visible
27 May 5.0 22:43:04 33° W 22:43:17 33° W 22:47:19 10° NNW visible
28 May 4.5 21:22:14 28° E 21:22:36 28° E 21:26:24 10° NNE visible
28 May 5.9 22:59:19 16° W 23:00:23 17° WNW 23:03:22 10° NW visible
29 May 3.6 21:38:25 44° SE 21:39:29 58° E 21:43:51 10° NNE visible
30 May 3.8 21:54:32 33° SSW 21:56:27 68° W 22:00:52 10° N visible
31 May 5.3 20:33:35 10° ESE 20:36:01 15° E 20:38:26 10° NE visible
31 May 5.1 22:10:34 16° SW 22:13:29 33° W 22:17:29 10° NNW visible
01 Jun 4.5 20:49:26 12° SSE 20:52:49 29° E 20:56:37 10° NNE visible
01 Jun 6.2 22:27:43 10° WSW 22:30:37 17° WNW 22:33:30 10° NW visible
02 Jun 3.6 21:05:20 10° S 21:09:42 59° E 21:14:03 10° NNE visible
03 Jun 3.9 21:22:15 10° SSW 21:26:39 66° W 21:31:03 10° N visible
04 Jun 5.3 21:39:44 10° SW 21:43:41 32° W 21:47:39 10° NNW visible
05 Jun 6.4 21:58:00 10° WSW 22:00:49 16° WNW 22:03:38 10° NW visible
